Stations météo

Publicité
Dunkerque, France (7010): Température de l'air & dewpoint: 26.03.2020 10:00:00 - 01.04.2020 10:00:00 (CEST)Dunkerque, France (7010): Vitesse du vent & gusts: 26.03.2020 10:00:00 - 01.04.2020 10:00:00 (CEST)Dunkerque, France (7010): Direction du vent: 26.03.2020 10:00:00 - 01.04.2020 10:00:00 (CEST)Dunkerque, France (7010): reduced air pressure: 26.03.2020 10:00:00 - 01.04.2020 10:00:00 (CEST)Dunkerque, France (7010): visibility: 26.03.2020 10:00:00 - 01.04.2020 10:00:00 (CEST)Dunkerque, France (7010): Quantités de précipitations: 26.03.2020 10:00:00 - 01.04.2020 10:00:00 (CEST)
Date & Time tt [°C] td [°C] ff [km/h] ff [knt] fx [km/h] fx [knt] dd ppp [hPa] vv [km] rr [mm]
01.04.2020 10:00:00 6,8 -1,4 8 4 11 6 E 1025,0 10 0,0
01.04.2020 09:00:00 5,5 -1,7 6 4 10 5 E 1025,1 10 0,0
01.04.2020 08:00:00 3,9 -1,9 7 4 11 6 ESE 1025,2 20 0,0
01.04.2020 07:00:00 3,5 -1,7 9 5 16 8 ESE 1025,3 7 0,0
01.04.2020 06:00:00 4,0 -1,4 10 6 19 10 E 1025,5 10 0,0
01.04.2020 05:00:00 4,0 -1,2 14 8 21 11 E 1026,0 - 0,0
01.04.2020 04:00:00 4,4 0,7 13 7 19 10 E 1026,6 - 0,0
01.04.2020 03:00:00 5,1 1,6 14 8 33 18 E 1027,1 - 0,0
01.04.2020 02:00:00 5,9 1,4 25 14 35 19 NE 1027,6 - 0,0
01.04.2020 01:00:00 5,8 1,1 25 14 37 20 NE 1027,9 - 0,0
01.04.2020 00:00:00 5,9 1,6 27 15 37 20 NE 1028,3 - 0,0
31.03.2020 23:00:00 5,8 1,1 27 15 38 20 NE 1028,6 - 0,0
31.03.2020 22:00:00 5,8 0,9 29 16 41 22 NE 1029,0 10 0,0
31.03.2020 21:00:00 6,1 0,6 31 17 41 22 NE 1029,2 10 0,0
31.03.2020 20:00:00 6,5 1,0 33 18 44 24 NE 1029,2 10 0,0
31.03.2020 19:00:00 7,0 0,2 34 18 40 22 NNE 1029,6 10 0,0
31.03.2020 18:00:00 7,5 0,0 32 18 41 22 NNE 1029,7 10 0,0
31.03.2020 17:00:00 8,0 -1,0 35 19 45 24 NE 1030,1 20 0,0
31.03.2020 16:00:00 8,3 -0,7 35 19 48 26 NE 1030,6 10 0,0
31.03.2020 15:00:00 8,5 -1,3 30 16 46 25 NE 1031,1 10 0,0
31.03.2020 14:00:00 8,2 -2,2 32 17 46 25 NE 1031,3 20 0,0
31.03.2020 13:00:00 8,0 -0,3 30 16 42 23 NE 1031,5 10 0,0
31.03.2020 12:00:00 7,6 1,6 27 15 37 20 NE 1031,9 10 0,0
31.03.2020 11:00:00 7,0 2,5 27 14 38 20 ENE 1031,9 10 0,0
31.03.2020 10:00:00 6,5 2,4 19 11 35 19 ENE 1031,7 10 0,0
31.03.2020 09:00:00 5,7 2,5 28 15 35 19 ENE 1031,2 10 0,0
31.03.2020 08:00:00 5,9 3,2 27 15 37 20 ENE 1030,7 10 0,0
31.03.2020 07:00:00 5,7 2,7 26 14 34 18 ENE 1029,9 10 0,0
31.03.2020 06:00:00 5,5 3,3 18 10 33 18 E 1029,6 10 0,0
31.03.2020 05:00:00 6,1 3,3 24 13 30 16 ENE 1029,5 15 0,0
31.03.2020 04:00:00 6,0 3,3 24 13 32 17 ENE 1029,5 - 0,0
31.03.2020 03:00:00 6,2 3,5 25 13 41 22 ENE 1029,6 - 0,2
31.03.2020 02:00:00 6,5 3,5 25 13 38 20 NE 1029,5 10 0,0
31.03.2020 01:00:00 6,2 3,7 23 12 48 26 NE 1029,5 - 0,2
31.03.2020 00:00:00 6,6 4,1 28 15 42 23 NNE 1029,7 - 0,0
30.03.2020 23:00:00 6,9 4,7 23 12 41 22 NNE 1029,5 - 0,0
30.03.2020 22:00:00 6,7 4,2 29 15 42 23 NNE 1029,6 10 0,2
30.03.2020 21:00:00 7,1 4,2 26 14 44 24 NNE 1029,5 10 0,0
30.03.2020 20:00:00 7,1 3,7 31 17 45 24 N 1029,4 10 0,4
30.03.2020 19:00:00 7,6 3,3 28 15 39 21 NNE 1029,7 10 0,0
30.03.2020 18:00:00 8,1 3,4 29 15 40 22 NNE 1030,0 10 0,0
30.03.2020 17:00:00 8,1 3,2 28 15 37 20 NNE 1030,6 10 0,0
30.03.2020 16:00:00 7,0 3,2 16 8 36 20 N 1031,2 10 0,0
30.03.2020 15:00:00 7,5 3,7 18 10 30 16 N 1031,7 10 0,0
30.03.2020 14:00:00 7,4 2,9 15 8 28 15 N 1032,5 20 0,0
30.03.2020 13:00:00 6,4 2,5 12 6 21 12 N 1032,9 10 0,0
30.03.2020 12:00:00 6,4 -0,8 6 3 11 6 N 1033,4 10 0,0
30.03.2020 11:00:00 5,7 -2,2 2 1 8 4 NNE 1033,9 10 0,0
30.03.2020 10:00:00 6,0 -2,9 6 3 15 8 E 1033,9 10 0,0
30.03.2020 09:00:00 4,4 -3,6 11 6 17 9 E 1034,2 10 0,0
30.03.2020 08:00:00 3,2 -3,6 15 8 22 12 E 1034,4 10 0,0
30.03.2020 07:00:00 3,4 -3,9 15 8 32 17 E 1034,3 10 0,0
30.03.2020 06:00:00 3,2 -4,3 19 11 30 16 E 1034,7 10 0,0
30.03.2020 05:00:00 3,3 -4,4 21 12 38 21 E 1034,9 - 0,0
30.03.2020 04:00:00 3,7 -3,8 28 15 41 22 E 1035,4 - 0,0
30.03.2020 03:00:00 4,1 -3,4 35 19 53 29 ENE 1035,9 - 0,0
30.03.2020 02:00:00 4,4 -2,9 40 22 58 31 ENE 1036,2 15 0,0
30.03.2020 01:00:00 4,7 -2,0 42 23 81 44 ENE 1036,3 - 0,0
30.03.2020 00:00:00 4,9 -3,4 47 25 74 40 NE 1036,3 - 0,0
29.03.2020 23:00:00 5,2 -2,9 58 31 77 42 NNE 1036,2 20 0,0
29.03.2020 22:00:00 5,2 -1,3 49 26 75 40 NE 1036,1 10 0,0
29.03.2020 21:00:00 5,1 -3,0 56 30 84 46 NE 1035,8 10 0,0
29.03.2020 20:00:00 5,4 -1,5 57 31 83 45 NE 1035,3 20 0,0
29.03.2020 19:00:00 5,5 -2,8 58 31 82 44 NNE 1034,8 10 0,0
29.03.2020 18:00:00 5,8 -1,6 54 29 81 44 NE 1034,5 10 0,0
29.03.2020 17:00:00 6,4 -2,0 56 31 78 42 NE 1034,4 20 0,0
29.03.2020 16:00:00 6,3 -3,9 54 29 78 42 NNE 1034,1 10 0,0
29.03.2020 15:00:00 7,0 -1,9 58 32 94 51 NNE 1033,9 10 0,0
29.03.2020 14:00:00 6,8 -1,9 60 33 86 47 NE 1033,3 12 0,0
29.03.2020 13:00:00 6,6 0,5 48 26 98 53 NE 1033,6 10 0,0
29.03.2020 12:00:00 6,0 0,9 39 21 82 45 NNE 1032,9 10 0,0
29.03.2020 11:00:00 5,5 3,3 18 10 30 16 NNE 1032,6 10 0,6
29.03.2020 10:00:00 2,4 1,4 33 18 65 35 ENE 1032,6 10 1,0
29.03.2020 09:00:00 4,4 1,9 47 26 85 46 NE 1031,3 10 0,4
29.03.2020 08:00:00 6,1 -0,9 49 26 71 39 NNE 1030,8 10 0,0
29.03.2020 07:00:00 6,2 -1,0 48 26 68 37 N 1030,5 10 0,0
29.03.2020 06:00:00 6,2 -2,2 47 25 69 37 NNE 1030,7 10 0,0
29.03.2020 05:00:00 6,3 -1,6 46 25 70 38 NNE 1030,5 - 0,0
29.03.2020 04:00:00 6,5 -0,7 49 26 71 38 NNE 1030,7 - 0,0
29.03.2020 03:00:00 6,6 -0,2 53 28 71 39 NNE 1030,6 - 0,0
29.03.2020 02:00:00 6,4 1,1 47 25 76 41 NNE 1030,7 - 0,0
29.03.2020 01:00:00 5,6 1,5 59 32 85 46 NNE 1030,1 - 0,0
29.03.2020 00:00:00 6,0 2,1 56 30 79 42 NNE 1030,0 - 0,0
28.03.2020 23:00:00 7,2 3,1 48 26 68 37 NNE 1029,5 15 0,0
28.03.2020 22:00:00 7,5 2,8 50 27 68 37 NNE 1029,2 10 0,0
28.03.2020 21:00:00 7,7 3,2 49 26 69 38 NNE 1028,8 10 0,0
28.03.2020 20:00:00 7,8 3,1 48 26 68 37 NNE 1027,9 10 0,0
28.03.2020 19:00:00 8,1 3,4 53 29 71 38 NNE 1027,3 10 -
28.03.2020 18:00:00 8,6 4,4 47 25 69 38 NNE 1026,9 10 0,0
28.03.2020 17:00:00 8,5 4,7 50 27 71 38 NNE 1026,6 10 0,0
28.03.2020 16:00:00 8,9 5,1 49 26 69 37 NNE 1026,3 10 0,0
28.03.2020 15:00:00 9,2 4,6 48 26 68 37 NNE 1026,1 10 0,0
28.03.2020 14:00:00 9,6 5,4 47 25 63 34 NNE 1025,9 6 0,0
28.03.2020 13:00:00 9,9 5,3 45 25 60 32 NE 1025,6 10 0,0
28.03.2020 12:00:00 9,5 4,9 41 22 67 36 NE 1024,9 10 0,0
28.03.2020 11:00:00 9,1 5,8 41 22 56 30 NE 1024,4 9 0,0
28.03.2020 10:00:00 8,6 5,5 38 20 52 28 NE 1023,9 9 0,0
28.03.2020 09:00:00 8,2 5,8 34 18 47 25 NE 1023,2 7 0,0
28.03.2020 08:00:00 7,9 5,7 32 18 43 23 NE 1022,6 6 0,0
28.03.2020 07:00:00 8,0 5,6 32 17 43 23 NE 1022,1 6 0,0
28.03.2020 06:00:00 8,1 5,6 30 16 43 23 NE 1021,7 7 0,0
28.03.2020 05:00:00 8,1 5,6 32 18 43 23 NE 1021,6 12 0,0
28.03.2020 04:00:00 8,0 5,8 27 15 37 20 NE 1021,7 - 0,0
28.03.2020 03:00:00 8,1 5,9 28 15 37 20 NE 1021,6 - 0,0
28.03.2020 02:00:00 8,0 6,0 23 12 36 19 NE 1021,6 - 0,0
28.03.2020 01:00:00 8,1 6,1 27 15 39 21 NE 1021,5 - 0,0
28.03.2020 00:00:00 8,1 6,1 29 15 44 24 NE 1021,7 - 0,0
27.03.2020 23:00:00 8,1 5,9 32 18 43 23 NE 1021,3 10 0,0
27.03.2020 22:00:00 8,2 6,0 34 19 45 25 NNE 1021,2 8 0,0
27.03.2020 21:00:00 8,5 5,9 33 18 42 23 NNE 1021,0 8 0,0
27.03.2020 20:00:00 8,7 6,0 27 14 39 21 NNE 1020,4 9 0,0
27.03.2020 19:00:00 9,3 5,7 27 15 40 21 NNE 1020,2 10 0,0
27.03.2020 18:00:00 9,8 5,0 31 17 43 23 NNE 1020,0 10 0,0
27.03.2020 17:00:00 10,3 4,4 32 17 42 23 NE 1020,2 10 0,0
27.03.2020 16:00:00 10,3 3,8 34 19 45 24 NNE 1020,6 10 0,0
27.03.2020 15:00:00 9,5 3,2 34 18 42 23 NNE 1020,8 10 0,0
27.03.2020 14:00:00 9,8 3,3 33 18 41 22 NNE 1021,3 15 0,0
27.03.2020 13:00:00 9,9 3,6 31 17 39 21 NE 1021,5 10 0,0
27.03.2020 12:00:00 9,5 3,9 26 14 33 18 NNE 1021,8 10 0,0
27.03.2020 11:00:00 9,0 3,6 23 13 38 20 NE 1021,8 12 0,0
27.03.2020 10:00:00 8,2 2,8 29 15 41 22 NE 1021,8 10 0,0
27.03.2020 09:00:00 7,8 2,5 27 14 36 19 NE 1021,5 10 0,0
27.03.2020 08:00:00 7,2 1,7 26 14 37 20 NE 1021,6 10 0,0
27.03.2020 07:00:00 7,1 1,6 27 15 35 19 NE 1021,4 10 0,0
27.03.2020 06:00:00 7,2 1,3 26 14 34 18 NE 1021,4 10 0,0
27.03.2020 05:00:00 7,4 1,5 25 13 31 17 NE 1021,3 15 0,0
27.03.2020 04:00:00 7,5 2,0 24 13 34 18 ENE 1021,5 - 0,0
27.03.2020 03:00:00 7,7 2,4 27 14 36 19 ENE 1021,6 - 0,0
27.03.2020 02:00:00 7,8 2,5 26 14 33 18 ENE 1021,7 15 0,0
27.03.2020 01:00:00 8,0 3,5 22 12 32 18 ENE 1021,8 - 0,0
27.03.2020 00:00:00 7,9 2,8 22 12 32 18 ENE 1021,9 - 0,0
26.03.2020 23:00:00 7,9 3,7 23 13 36 20 NE 1021,9 - 0,0
26.03.2020 22:00:00 8,0 3,8 28 15 40 21 NE 1021,9 10 0,0
26.03.2020 21:00:00 8,0 3,3 28 15 41 22 NE 1021,7 10 0,0
26.03.2020 20:00:00 8,1 2,3 34 18 45 24 NE 1021,2 15 0,0
26.03.2020 19:00:00 8,6 2,6 36 19 46 25 NNE 1021,0 10 0,0
26.03.2020 18:00:00 9,1 2,2 35 19 46 25 NE 1021,1 10 0,0
26.03.2020 17:00:00 9,3 1,9 37 20 49 26 NE 1021,4 10 0,0
26.03.2020 16:00:00 9,7 -0,8 38 20 49 26 NE 1021,5 10 0,0
26.03.2020 15:00:00 9,3 0,2 37 20 47 25 NE 1021,8 10 0,0
26.03.2020 14:00:00 9,2 -1,0 36 20 45 24 NE 1022,1 10 0,0
26.03.2020 13:00:00 9,1 -0,5 29 16 42 23 NE 1022,5 10 0,0
26.03.2020 12:00:00 8,8 -2,2 28 15 38 20 NE 1022,8 10 0,0
26.03.2020 11:00:00 8,0 -4,2 23 13 35 19 E 1022,9 15 0,0
26.03.2020 10:00:00 - - - - - - - - - -

tt = Température de l'air
td = dewpoint
ff = Vitesse du vent
fx = gusts
dd = Direction du vent
ppp = reduced air pressure
vv = visibility
rr = Quantités de précipitations

stations d'obs. à proximité